FW0267 Weather Reports


time (UTC)temp
F
wind
direction
speed
knots
gust
knots
rain 1hr
in
rain 24hr
in
rain mn
in
humidity
%
barometer
mb
20260903013519 0 126 0.9 1.7 0.00 0.00 0.00 1017.9
20260903013019 0 136 0.0 0.9 0.00 0.00 0.00 1017.9
20260903012517 0 127 0.0 0.9 0.00 0.00 0.00 1018.1
20260903012020 0 131 0.0 0.9 0.00 0.00 0.00 1018.0
20260903011518 0 143 0.0 0.9 0.00 0.00 0.00 1017.9
20260903011018 0 109 0.0 0.9 0.00 0.00 0.00 1017.8
20260903010517 0 112 0.0 0.9 0.00 0.00 0.00 1017.8
20260903010036 0 113 0.0 0.9 0.00 0.00 0.00 1017.8
20260903005517 0 83 0.0 1.7 0.00 0.00 0.00 1017.5
20260903005017 0 137 0.9 2.6 0.00 0.00 0.00 1017.6
20260903004517 0 125 0.9 2.6 0.00 0.00 0.00 1017.6
20260903004016 0 126 0.9 1.7 0.00 0.00 0.00 1017.6
20260903003517 0 136 0.0 1.7 0.00 0.00 0.00 1017.7
20260903003016 0 136 0.9 1.7 0.00 0.00 0.00 1017.6
20260903002519 0 132 0.9 1.7 0.00 0.00 0.00 1017.6
20260903002016 0 128 0.9 2.6 0.00 0.00 0.00 1017.7
20260903001528 0 110 0.0 1.7 0.00 0.00 0.00 1017.6
20260903001017 0 132 0.9 1.7 0.00 0.00 0.00 1017.3
20260903000518 0 113 0.0 1.7 0.00 0.00 0.00 1017.2
20260903000016 0 84 0.0 1.7 0.00 0.00 0.00 1017.2
20260902235516 0 111 0.0 1.7 0.00 0.00 0.00 1017.3
20260902235018 0 119 0.0 1.7 0.00 0.00 0.00 1017.2
20260902234526 0 130 0.0 1.7 0.00 0.00 0.00 1016.8
20260902234018 0 113 0.0 1.7 0.00 0.00 0.00 1016.9
20260902233515 0 119 0.0 1.7 0.00 0.00 0.00 1017.0
20260902233014 0 126 0.0 2.6 0.00 0.00 0.00 1016.9
20260902232514 0 156 0.9 1.7 0.00 0.00 0.00 1017.1
20260902232015 0 113 0.9 1.7 0.00 0.00 0.00 1017.3
20260902231529 0 126 0.0 1.7 0.00 0.00 0.00 1017.5
20260902231014 0 90 0.0 2.6 0.00 0.00 0.00 1017.8
20260902230514 0 103 0.0 2.6 0.00 0.00 0.00 1017.4
20260902230014 0 124 0.0 1.7 0.00 0.00 0.00 1017.3
20260902225514 0 360 0.9 1.7 0.00 0.00 0.00 1017.2
20260902225017 0 128 0.9 2.6 0.00 0.00 0.00 1017.1
20260902224513 0 133 0.9 2.6 0.00 0.00 0.00 1017.7
20260902224013 0 128 0.9 2.6 0.00 0.00 0.00 1018.1
20260902223512 0 151 0.9 2.6 0.00 0.00 0.00 1017.9
20260902223013 0 93 0.9 2.6 0.00 0.00 0.00 1017.9
20260902222511 0 142 0.0 2.6 0.00 0.00 0.00 1017.8
20260902222012 0 121 0.9 2.6 0.00 0.00 0.00 1017.6
20260902221516 0 119 0.0 2.6 0.00 0.00 0.00 1017.9
20260902221012 0 183 0.0 2.6 0.00 0.00 0.00 1018.2
20260902220614 0 167 0.0 4.3 0.00 0.00 0.00 1018.1
20260902220025 0 204 0.9 4.3 0.00 0.00 0.00 1017.9
20260902215510 0 115 0.9 3.5 0.00 0.00 0.00 1017.9
20260902215014 0 131 0.9 3.5 0.00 0.00 0.00 1017.9
20260902214510 0 142 0.9 4.3 0.00 0.00 0.00 1017.9
20260902214008 0 131 1.7 4.3 0.00 0.00 0.00 1017.7
20260902213511 0 180 1.7 4.3 0.00 0.00 0.00 1017.7
20260902213009 0 158 0.9 5.2 0.00 0.00 0.00 1017.9
20260902212509 0 117 0.0 7.8 0.00 0.00 0.00 1018.0
20260902212013 0 360 2.6 8.7 0.00 0.00 0.00 1017.8
20260902211512 0 221 1.7 8.7 0.00 0.00 0.00 1017.9
20260902211008 0 324 2.6 8.7 0.00 0.00 0.00 1017.7
20260902210508 0 5 3.5 9.6 0.00 0.00 0.00 1017.9
20260902210009 0 171 0.9 7.0 0.00 0.00 0.00 1017.9
20260902205508 0 340 2.6 6.1 0.00 0.00 0.00 1018.1
20260902205011 0 302 1.7 5.2 0.00 0.00 0.00 1017.8
20260902204509 0 185 0.9 2.6 0.00 0.00 0.00 1017.5
20260902204012 0 164 0.0 2.6 0.00 0.00 0.00 1017.2
20260902203506 0 281 0.9 3.5 0.00 0.00 0.00 1017.3
20260902203006 0 127 1.7 3.5 0.00 0.00 0.00 1017.3
20260902202508 0 355 0.9 2.6 0.00 0.00 0.00 1017.4
20260902202003 0 133 0.9 2.6 0.00 0.00 0.00 1017.4
20260902201502 0 112 0.9 2.6 0.00 0.00 0.00 1017.4
20260902201101 0 98 0.0 2.6 0.00 0.00 0.00 1017.5
20260902200601 0 355 0.0 2.6 0.00 0.00 0.00 1017.5
20260902200058 0 76 0.0 2.6 0.00 0.00 0.00 1017.5
20260902195600 0 40 0.0 5.2 0.00 0.00 0.00 1017.5
20260902195055 0 109 0.0 5.2 0.00 0.00 0.00 1017.4
20260902194554 0 15 0.0 1.7 0.00 0.00 0.00 1017.4
20260902194052 0 111 0.0 1.7 0.00 0.00 0.00 1017.2
20260902193550 0 125 0.9 2.6 0.00 0.00 0.00 1017.2
20260902193049 0 112 0.0 2.6 0.00 0.00 0.00 1017.3
20260902192547 0 13 0.0 2.6 0.00 0.00 0.00 1017.3
20260902192051 0 327 0.9 2.6 0.00 0.00 0.00 1017.3
20260902191549 0 111 0.9 2.6 0.00 0.00 0.00 1017.3
20260902191043 0 159 0.9 2.6 0.00 0.00 0.00 1017.4
20260902190541 0 115 0.9 2.6 0.00 0.00 0.00 1017.5
20260902190040 0 103 0.9 2.6 0.00 0.00 0.00 1017.7
20260902185540 0 104 0.9 1.7 0.00 0.00 0.00 1017.7
20260902185043 0 155 0.0 2.6 0.00 0.00 0.00 1017.8
20260902184539 0 142 0.0 3.5 0.00 0.00 0.00 1017.7
20260902184039 0 138 0.9 3.5 0.00 0.00 0.00 1017.9
20260902183538 0 100 0.0 1.7 0.00 0.00 0.00 1017.8
20260902183037 0 323 0.9 2.6 0.00 0.00 0.00 1017.9
20260902182534 0 119 0.9 2.6 0.00 0.00 0.00 1017.9
20260902182034 0 108 0.0 3.5 0.00 0.00 0.00 1018.0
20260902181532 0 117 0.9 3.5 0.00 0.00 0.00 1018.1
20260902181034 0 36 0.9 3.5 0.00 0.00 0.00 1018.0
20260902180528 0 134 0.0 2.6 0.00 0.00 0.00 1018.0
20260902180028 0 125 0.9 2.6 0.00 0.00 0.00 1018.1
20260902175526 0 343 0.9 2.6 0.00 0.00 0.00 1018.0
20260902175025 0 79 0.0 2.6 0.00 0.00 0.00 1018.0
20260902174526 0 153 0.0 2.6 0.00 0.00 0.00 1017.9
20260902174023 0 57 0.0 3.5 0.00 0.00 0.00 1017.9
20260902173520 0 88 0.9 3.5 0.00 0.00 0.00 1017.9
20260902173030 0 5 0.0 2.6 0.00 0.00 0.00 1017.9
20260902172519 0 5 0.9 2.6 0.00 0.00 0.00 1017.9
20260902172016 0 72 0.9 2.6 0.00 0.00 0.00 1017.8
20260902171514 0 126 0.9 2.6 0.00 0.00 0.00 1017.9
20260902171012 0 335 0.0 5.2 0.00 0.00 0.00 1017.8
20260902170513 0 22 0.9 5.2 0.00 0.00 0.00 1017.9
20260902170011 0 19 0.9 3.5 0.00 0.00 0.00 1017.9
20260902165509 0 19 0.9 4.3 0.00 0.00 0.00 1017.8
20260902165007 0 98 0.0 2.6 0.00 0.00 0.00 1017.8
20260902164506 0 173 0.9 2.6 0.00 0.00 0.00 1017.9
20260902164105 0 139 0.0 4.3 0.00 0.00 0.00 1017.9
20260902163502 0 166 0.9 4.3 0.00 0.00 0.00 1018.1
20260902163001 0 180 0.9 2.6 0.00 0.00 0.00 1018.1
20260902162602 0 301 0.9 2.6 0.00 0.00 0.00 1018.2
20260902162057 0 113 0.9 2.6 0.00 0.00 0.00 1018.3
20260902161603 0 79 0.0 3.5 0.00 0.00 0.00 1018.4
20260902161055 0 346 1.7 3.5 0.00 0.00 0.00 1018.4
20260902160554 0 89 0.0 2.6 0.00 0.00 0.00 1018.4
20260902160055 0 107 0.9 2.6 0.00 0.00 0.00 1018.5
20260902155551 0 138 0.0 2.6 0.00 0.00 0.00 1018.5
20260902155049 0 102 0.0 3.5 0.00 0.00 0.00 1018.4
20260902154548 0 96 0.9 3.5 0.00 0.00 0.00 1018.6
20260902154046 0 5 0.0 1.7 0.00 0.00 0.00 1018.5
20260902153545 0 107 0.0 1.7 0.00 0.00 0.00 1018.4
20260902153043 0 148 0.0 1.7 0.00 0.00 0.00 1018.4
20260902152541 0 107 0.0 5.2 0.00 0.00 0.00 1018.5
20260902152040 0 169 0.9 5.2 0.00 0.00 0.00 1018.7
20260902151539 0 112 0.9 2.6 0.00 0.00 0.00 1018.6
20260902151037 0 116 0.0 1.7 0.00 0.00 0.00 1018.7
20260902150536 0 101 0.0 1.7 0.00 0.00 0.00 1018.7
20260902150037 0 101 0.0 1.7 0.00 0.00 0.00 1018.7
20260902145532 0 101 0.0 2.6 0.00 0.00 0.00 1018.7
20260902145033 0 88 0.9 2.6 0.00 0.00 0.00 1018.7
20260902144532 0 167 0.0 3.5 0.00 0.00 0.00 1018.7
20260902144028 0 9 0.9 3.5 0.00 0.00 0.00 1018.6
20260902143527 0 132 0.0 2.6 0.00 0.00 0.00 1018.6
20260902143026 0 161 0.0 1.7 0.00 0.00 0.00 1018.6
20260902142524 0 189 0.0 3.5 0.00 0.00 0.00 1018.6
20260902142022 0 117 0.9 3.5 0.00 0.00 0.00 1018.6
20260902141526 0 146 0.9 2.6 0.00 0.00 0.00 1018.6
20260902141022 0 104 0.0 2.6 0.00 0.00 0.00 1018.6
20260902140518 0 115 0.0 1.7 0.00 0.00 0.00 1018.6
20260902140027 0 118 0.0 2.6 0.00 0.00 0.00 1018.5
20260902135518 0 119 0.9 2.6 0.00 0.00 0.00 1018.5
20260902135014 0 39 0.0 2.6 0.00 0.00 0.00 1018.5
20260902134512 0 111 0.0 0.9 0.00 0.00 0.00 1018.5
20260902134010 0 105 0.0 0.9 0.00 0.00 0.00 1018.4
20260902133508 0 105 0.0 0.9 0.00 0.00 0.00 1018.4
20260902133007 0 101 0.0 1.7 0.00 0.00 0.00 1018.3
20260902132507 0 38 0.0 1.7 0.00 0.00 0.00 1018.2
20260902132003 0 17 0.0 2.6 0.00 0.00 0.00 1018.4
20260902131502 0 26 0.0 2.6 0.00 0.00 0.00 1018.3
20260902131001 0 64 0.0 1.7 0.00 0.00 0.00 1018.2
20260902130600 0 69 0.0 1.7 0.00 0.00 0.00 1018.2
20260902130059 0 28 0.0 1.7 0.00 0.00 0.00 1018.3
20260902125557 0 112 0.0 1.7 0.00 0.00 0.00 1018.3
20260902125056 0 112 0.0 0.0 0.00 0.00 0.00 1018.3
20260902124557 0 112 0.0 1.7 0.00 0.00 0.00 1018.3
20260902124055 0 112 0.0 0.9 0.00 0.00 0.00 1018.3
20260902123552 0 112 0.0 0.9 0.00 0.00 0.00 1018.3
20260902123054 0 118 0.0 0.9 0.00 0.00 0.00 1018.3
20260902122552 0 123 0.0 0.9 0.00 0.00 0.00 1018.3
20260902122046 0 126 0.0 0.9 0.00 0.00 0.00 1018.3
20260902121549 0 126 0.0 0.9 0.00 0.00 0.00 1018.3
20260902121043 0 126 0.0 0.9 0.00 0.00 0.00 1018.2
20260902120545 0 117 0.0 0.9 0.00 0.00 0.00 1018.2
20260902120041 0 110 0.0 0.0 0.00 0.00 0.00 1018.3
20260902115543 0 110 0.0 0.0 0.00 0.00 0.00 1018.2
20260902115038 0 110 0.0 0.0 0.00 0.00 0.00 1018.2
20260902114603 0 110 0.0 0.9 0.00 0.00 0.00 1018.1
20260902114036 0 110 0.0 0.9 0.00 0.00 0.00 1018.1
20260902113533 0 113 0.0 0.9 0.00 0.00 0.00 1018.1
20260902113041 0 122 0.0 0.9 0.00 0.00 0.00 1018.2
20260902112530 0 127 0.0 0.9 0.00 0.00 0.00 1018.1
20260902112029 0 136 0.0 0.9 0.00 0.00 0.00 1018.1
20260902111527 0 122 0.0 0.9 0.00 0.00 0.00 1018.1
20260902111026 0 128 0.0 0.0 0.00 0.00 0.00 1018.0
20260902110525 0 128 0.0 0.0 0.00 0.00 0.00 1018.1
20260902110036 0 128 0.0 0.0 0.00 0.00 0.00 1018.2
20260902105525 0 128 0.0 0.0 0.00 0.00 0.00 1018.2
20260902105020 0 128 0.0 0.9 0.00 0.00 0.00 1018.0
20260902104532 0 128 0.0 0.9 0.00 0.00 0.00 1017.9
20260902104018 0 128 0.0 0.9 0.00 0.00 0.00 1017.9
20260902103516 0 134 0.0 0.9 0.00 0.00 0.00 1017.8
20260902103021 0 140 0.0 0.9 0.00 0.00 0.00 1017.8
20260902102516 0 140 0.0 1.7 0.00 0.00 0.00 1017.8
20260902102011 0 118 0.0 1.7 0.00 0.00 0.00 1017.7
20260902101509 0 114 0.0 0.9 0.00 0.00 0.00 1017.6
20260902101008 0 103 0.0 0.9 0.00 0.00 0.00 1017.6
20260902100507 0 101 0.0 0.0 0.00 0.00 0.00 1017.5
20260902100008 0 101 0.0 0.0 0.00 0.00 0.00 1017.4
20260902095505 0 101 0.0 0.0 0.00 0.00 0.00 1017.6
20260902095003 0 101 0.0 0.9 0.00 0.00 0.00 1017.4
20260902094501 0 101 0.0 0.9 0.00 0.00 0.00 1017.2
20260902094100 0 101 0.0 0.9 0.00 0.00 0.00 1017.3
20260902093557 0 102 0.0 0.9 0.00 0.00 0.00 1017.4
20260902093108 0 102 0.0 0.9 0.00 0.00 0.00 1017.4
20260902092555 0 104 0.0 0.9 0.00 0.00 0.00 1017.4
20260902092057 0 101 0.0 0.9 0.00 0.00 0.00 1017.4
20260902091556 0 106 0.0 0.9 0.00 0.00 0.00 1017.3
20260902091053 0 103 0.0 0.0 0.00 0.00 0.00 1017.3
20260902090551 0 103 0.0 0.0 0.00 0.00 0.00 1017.3
20260902090056 0 103 0.0 0.0 0.00 0.00 0.00 1017.2
20260902085547 0 103 0.0 0.0 0.00 0.00 0.00 1017.3
20260902085047 0 103 0.0 0.9 0.00 0.00 0.00 1017.3
20260902084543 0 103 0.0 0.9 0.00 0.00 0.00 1017.3
20260902084043 0 104 0.0 0.9 0.00 0.00 0.00 1017.3
20260902083539 0 104 0.0 0.0 0.00 0.00 0.00 1017.2
20260902083044 0 104 0.0 0.9 0.00 0.00 0.00 1017.2
20260902082537 0 104 0.0 0.9 0.00 0.00 0.00 1017.2
20260902082036 0 107 0.0 0.9 0.00 0.00 0.00 1017.2
20260902081541 0 105 0.0 0.9 0.00 0.00 0.00 1017.2
20260902081034 0 102 0.0 0.0 0.00 0.00 0.00 1017.1
20260902080535 0 102 0.0 0.0 0.00 0.00 0.00 1017.1
20260902080036 0 102 0.0 0.0 0.00 0.00 0.00 1017.1
20260902075533 0 102 0.0 0.0 0.00 0.00 0.00 1016.9
20260902075035 0 102 0.0 0.9 0.00 0.00 0.00 1017.0
20260902074543 0 102 0.0 0.9 0.00 0.00 0.00 1017.0
20260902074032 0 102 0.0 0.9 0.00 0.00 0.00 1017.0
20260902073530 0 103 0.0 0.9 0.00 0.00 0.00 1017.0
20260902073028 0 104 0.0 0.9 0.00 0.00 0.00 1017.0
20260902072526 0 107 0.0 0.9 0.00 0.00 0.00 1017.1
20260902072026 0 107 0.0 0.9 0.00 0.00 0.00 1017.2
20260902071525 0 107 0.0 0.9 0.00 0.00 0.00 1017.2
20260902071023 0 107 0.0 0.0 0.00 0.00 0.00 1017.1
20260902070521 0 107 0.0 0.9 0.00 0.00 0.00 1017.1
20260902070021 0 107 0.0 0.9 0.00 0.00 0.00 1017.2
20260902065519 0 105 0.0 0.0 0.00 0.00 0.00 1017.1
20260902065018 0 105 0.0 0.0 0.00 0.00 0.00 1017.1
20260902064522 0 105 0.0 0.9 0.00 0.00 0.00 1017.0
20260902064015 0 105 0.0 0.9 0.00 0.00 0.00 1016.9
20260902063512 0 105 0.0 0.9 0.00 0.00 0.00 1016.9
20260902063018 0 105 0.0 0.9 0.00 0.00 0.00 1016.9
20260902062510 0 105 0.0 0.9 0.00 0.00 0.00 1017.0
20260902062008 0 105 0.0 0.9 0.00 0.00 0.00 1017.0
20260902061516 0 109 0.0 0.9 0.00 0.00 0.00 1016.9
20260902061005 0 99 0.0 0.9 0.00 0.00 0.00 1016.8
20260902060503 0 99 0.0 0.9 0.00 0.00 0.00 1016.9
20260902060002 0 102 0.0 0.0 0.00 0.00 0.00 1016.9
20260902055503 0 102 0.0 0.0 0.00 0.00 0.00 1016.9
20260902055100 0 102 0.0 0.0 0.00 0.00 0.00 1017.0
20260902054600 0 102 0.0 0.9 0.00 0.00 0.00 1016.9
20260902054056 0 102 0.0 0.9 0.00 0.00 0.00 1017.0
20260902053555 0 116 0.0 0.9 0.00 0.00 0.00 1017.0
20260902053102 0 103 0.0 0.9 0.00 0.00 0.00 1017.0
20260902052551 0 100 0.0 0.9 0.00 0.00 0.00 1017.0
20260902052050 0 100 0.0 1.7 0.00 0.00 0.00 1017.1
20260902051554 0 101 0.0 1.7 0.00 0.00 0.00 1017.1
20260902051048 0 114 0.0 0.0 0.00 0.00 0.00 1017.2
20260902050547 0 114 0.0 0.9 0.00 0.00 0.00 1017.1
20260902050047 0 114 0.0 0.9 0.00 0.00 0.00 1017.0
20260902045543 0 117 0.0 0.9 0.00 0.00 0.00 1017.0
20260902045042 0 119 0.0 0.9 0.00 0.00 0.00 1017.0
20260902044540 0 123 0.0 0.9 0.00 0.00 0.00 1016.9
20260902044039 0 128 0.0 0.9 0.00 0.00 0.00 1016.9
20260902043538 0 128 0.0 0.9 0.00 0.00 0.00 1016.9
20260902043036 0 126 0.0 1.7 0.00 0.00 0.00 1016.9
20260902042536 0 132 0.0 1.7 0.00 0.00 0.00 1016.8
20260902042034 0 127 0.0 1.7 0.00 0.00 0.00 1016.8
20260902041536 0 140 0.0 0.9 0.00 0.00 0.00 1016.8
20260902041031 0 157 0.0 0.9 0.00 0.00 0.00 1016.7
20260902040529 0 136 0.0 0.9 0.00 0.00 0.00 1016.6
20260902040028 0 118 0.0 0.9 0.00 0.00 0.00 1016.7
20260902035526 0 118 0.0 0.9 0.00 0.00 0.00 1016.6
20260902035027 0 121 0.0 0.9 0.00 0.00 0.00 1016.6
20260902034527 0 129 0.0 0.9 0.00 0.00 0.00 1016.5
20260902034025 0 121 0.0 0.9 0.00 0.00 0.00 1016.4
20260902033521 0 131 0.0 1.7 0.00 0.00 0.00 1016.4
20260902033019 0 132 0.0 1.7 0.00 0.00 0.00 1016.2
20260902032519 0 128 0.9 1.7 0.00 0.00 0.00 1016.2
20260902032016 0 123 0.0 0.9 0.00 0.00 0.00 1016.4
20260902031517 0 124 0.0 1.7 0.00 0.00 0.00 1016.2
20260902031013 0 130 0.0 1.7 0.00 0.00 0.00 1016.1
20260902030513 0 128 0.0 1.7 0.00 0.00 0.00 1016.1
20260902030012 0 126 0.0 1.7 0.00 0.00 0.00 1016.1
20260902025510 0 126 0.0 1.7 0.00 0.00 0.00 1016.1
20260902025008 0 128 0.0 1.7 0.00 0.00 0.00 1016.1
20260902024509 0 126 0.0 0.9 0.00 0.00 0.00 1016.2
20260902024005 0 130 0.0 0.9 0.00 0.00 0.00 1016.2
20260902023503 0 124 0.0 1.7 0.00 0.00 0.00 1016.2
20260902023002 0 122 0.0 0.9 0.00 0.00 0.00 1016.1
20260902022601 0 112 0.0 0.9 0.00 0.00 0.00 1016.2
20260902022102 0 112 0.0 1.7 0.00 0.00 0.00 1016.4
20260902021558 0 105 0.0 0.9 0.00 0.00 0.00 1016.2
20260902021056 0 121 0.0 0.9 0.00 0.00 0.00 1016.3
20260902020555 0 115 0.0 0.9 0.00 0.00 0.00 1016.1
20260902020100 0 118 0.0 0.9 0.00 0.00 0.00 1016.1
20260902015553 0 124 0.0 0.9 0.00 0.00 0.00 1016.1
20260902015050 0 105 0.0 1.7 0.00 0.00 0.00 1015.9
20260902014551 0 117 0.0 1.7 0.00 0.00 0.00 1015.8
20260902014051 0 129 0.0 0.9 0.00 0.00 0.00 1015.8